Regional Weather Roundup
Issued by NWS

Home | Current Version | Previous Version | Text Only | Print | Product List | Glossary On
Versions: 1 2 3 4 5 6 7 8 9 10 11 12 13 14 15 16 17 18 19 20 21 22 23 24 25 26 27 28
000
ASUS42 KKEY 300710
RWRKEY

FLORIDA REGIONAL WEATHER ROUNDUP FOR THE FLORIDA KEYS
NATIONAL WEATHER SERVICE KEY WEST FLORIDA
300 AM EDT SAT JUL 30 2016

...SOUTH FLORIDA AND THE KEYS...

CITY           SKY/WX    TMP DP  RH WIND       PRES   REMARKS
FORT MYERS     CLEAR     78  77  96 CALM      30.02F
SW REGIONAL AP PTCLDY    79  75  87 CALM      30.03S
NAPLES         CLEAR     79  75  87 CALM      30.02F
MIAMI          PTCLDY    81  71  71 CALM      30.04F
WEST KENDALL   PTCLDY    80  71  74 CALM      30.03F
HOMESTEAD      PTCLDY    80  75  85 CALM      30.03F
MARATHON       PTCLDY    83  77  82 CALM      30.02F HX  92
BOCA CHICA NAS CLOUDY    82  76  81 SE6       30.01F
KEY WEST INTL  CLEAR     84  77  79 E6        30.02F HX  94

...INTERNATIONAL WEATHER...

CITY           SKY/WX    TMP DP  RH WIND       PRES   REMARKS
NASSAU BAHAMAS MOCLDY    81  72  74 CALM      30.04F
CANCUN MEXICO  PTCLDY    82  77  83 E5        30.00F HX  91
COZUMEL MEXICO PTCLDY    77  75  94 E3        29.99F

ADJACENT COASTAL WATERS...

STATION/POSITION TIME  SKY/WX   TEMP    WIND        PRES    WAVE
                                AIR SEA DIR/SP/G            HT/PER
                 (UTC)          (F)     (DEG/KT/KT) (MB)    (FT/S)
PULASKI SHOAL LI 0600            84     130/  3/  4 1016.8F
SAND KEY         0650            84     120/  7/  8 1016.9F
LONG KEY         0600            84 89  130/  5/  6 1017.4F
FOWEY ROCKS      0600            84 86  130/  3/  3 1018.0S

$$




USA.gov is the U.S. government's official web portal to all federal, state and local government web resources and services.